Regional Weather Roundup
Issued by NWS

Home | Current Version | Previous Version | Graphics & Text | Print | Product List | Glossary On
Versions: 1 2 3 4 5 6 7 8 9 10 11 12 13 14 15 16 17 18 19 20 21 22 23 24 25 26 27 28 29 30 31 32 33 34 35 36 37 38 39 40 41 42 43 44 45 46 47 48 49 50
000
ASUS43 KLMK 272110
RWRKY
KENTUCKY REGIONAL WEATHER ROUNDUP
NATIONAL WEATHER SERVICE LOUISVILLE KY
400 PM EST FRI FEB 27 2015

NOTE "FAIR" INDICATES FEW OR NO CLOUDS BELOW 12,000 FEET
WITH NO SIGNIFICANT WEATHER AND/OR OBSTRUCTIONS TO VISIBILITY.

KYZ001>023-026-027-061>063-070>075-272200-
WESTERN AND SOUTH CENTRAL KENTUCKY

CITY           SKY/WX    TMP DP  RH WIND       PRES   REMARKS
PADUCAH        MOSUNNY   25   8  48 CALM      30.59S
HENDERSON      PTSUNNY   23  10  58 N7        30.62S WCI  15
OWENSBORO      MOSUNNY   24   8  50 E8        30.61S WCI  15
HOPKINSVILLE   SUNNY     25   9  50 NE6       30.56R WCI  18
BOWLING GREEN  SUNNY     29   6  38 VRB5      30.56S WCI  24
GLASGOW        SUNNY     26   5  40 NE7       30.55S WCI  19
$$

KYZ024-025-028>034-038-045-046-053-272200-
NORTH CENTRAL KENTUCKY

CITY           SKY/WX    TMP DP  RH WIND       PRES   REMARKS
LOUISVILLE/SDF MOSUNNY   26   3  37 N6        30.60S WCI  19
LOUISVILLE/LOU SUNNY     26   3  37 VRB5      30.60S WCI  20
FORT KNOX      SUNNY     25   6  44 NE7       30.55S WCI  17
$$

KYZ035>037-039>044-047>052-055>060-089>105-272200-
NORTHEAST KENTUCKY

CITY           SKY/WX    TMP DP  RH WIND       PRES   REMARKS
LEXINGTON      SUNNY     23   4  44 VRB6      30.57R WCI  16
COVINGTON      MOSUNNY   21   0  39 CALM      30.57R
FRANKFORT      SUNNY     24   0  35 NE6       30.57R WCI  17
$$

KYZ054-064>069-076>088-106>120-272200-
SOUTHEAST KENTUCKY

CITY           SKY/WX    TMP DP  RH WIND       PRES   REMARKS
JACKSON        SUNNY     26   3  37 NW3       30.50R
LONDON         SUNNY     27   6  41 NE8       30.50S WCI  19
SOMERSET       SUNNY     23   9  54 NE8       30.56S WCI  14
MIDDLESBORO    SUNNY     29   8  41 N3        30.48S
MONTICELLO     CLEAR     27   9  46 N6        30.56S WCI  21
$$



USA.gov is the U.S. government's official web portal to all federal, state and local government web resources and services.